Weather History for KHZY - December, 2013

Change the Weather History Date:

Wednesday, December 4, 2013

  Actual Average (KYNG) Record (KYNG)
Temperature  
Mean Temperature 46 °F 34 °F  
Max Temperature 54 °F 40 °F 67 °F (1982)
Min Temperature 37 °F 28 °F 3 °F (1966)
Degree Days  
Heating Degree Days 20 31  
Month to date heating degree days 121  
Since 1 July heating degree days 1450  
Cooling Degree Days 0 0  
Month to date cooling degree days 0  
Year to date cooling degree days 544  
Moisture  
Dew Point 39 °F    
Average Humidity 71    
Maximum Humidity 86    
Minimum Humidity 62    
Precipitation  
Precipitation 0.00 in 0.10 in 0.93 in (1983)
Month to date precipitation 0.40  
Year to date precipitation 36.32  
Snow  
Snow 0.00 in 0.40 in - ()
Month to date snowfall 1.6  
Since 1 July snowfall 6.0  
Snow Depth -    
Sea Level Pressure  
Sea Level Pressure 29.90 in    
Wind  
Wind Speed 7 mph (SSE)    
Max Wind Speed 14 mph    
Max Gust Speed 21 mph    
Visibility 9 miles    
Events      
T = Trace of Precipitation, MM = Missing Value Source: NWS Daily Summary

Daily Weather History Graph

Daily Weather History Graph

Search for Another Location

Airport or City:

Trip Planner

Search our weather history database for the weather conditions in past years. The results will help you decide how hot, cold, wet, or windy it might be!

Date:

Astronomy

Dec. 04, 2013 Rise Set
Actual Time 7:33 AM EST 4:52 PM EST
Civil Twilight 7:02 AM EST 5:23 PM EST
Nautical Twilight 6:27 AM EST 5:58 PM EST
Astronomical Twilight 5:54 AM EST 6:31 PM EST
Moon 9:00 AM EST (12/4) 7:01 PM EST (12/4)
Length of Visible Light 10h 20m
Length of Day
9h 18m
Waxing Crescent, 4% of the Moon is Illuminated
Dec 4
Waxing Crescent
Dec 9
First Quarter
Dec 17
Full
Dec 25
Last Quarter
Jan 1
New

Hourly Weather History & Observations

Time (EST) Temp. Windchill Dew Point Humidity Pressure Visibility Wind Dir Wind Speed Gust Speed Precip Events Conditions
12:53 AM 41.0 °F 37.1 °F 35.1 °F 79% 29.91 in 8.0 mi SE 5.8 mph - N/A   Mostly Cloudy
1:53 AM 42.1 °F 40.2 °F 35.1 °F 76% 29.94 in 8.0 mi South 3.5 mph - N/A   Overcast
2:53 AM 42.1 °F 38.4 °F 35.1 °F 76% 29.93 in 8.0 mi South 5.8 mph - N/A   Overcast
3:53 AM 42.1 °F 38.4 °F 34.0 °F 73% 29.91 in 9.0 mi SSE 5.8 mph - N/A   Overcast
4:53 AM 41.0 °F 36.4 °F 34.0 °F 76% 29.91 in 9.0 mi SSE 6.9 mph - N/A   Partly Cloudy
5:53 AM 37.9 °F - 34.0 °F 86% 29.95 in 8.0 mi Calm Calm - N/A   Overcast
6:53 AM 41.0 °F 39.0 °F 35.1 °F 79% 29.96 in 9.0 mi South 3.5 mph - N/A   Overcast
7:53 AM 42.1 °F 40.2 °F 35.1 °F 76% 29.98 in 8.0 mi SSE 3.5 mph - N/A   Overcast
8:53 AM 43.0 °F 41.3 °F 36.0 °F 76% 29.98 in 8.0 mi SSE 3.5 mph - N/A   Overcast
9:53 AM 46.0 °F 40.6 °F 37.0 °F 71% 29.96 in 9.0 mi SSE 11.5 mph - N/A   Mostly Cloudy
10:53 AM 50.0 °F - 37.9 °F 63% 29.96 in 10.0 mi South 6.9 mph - N/A   Clear
11:53 AM 51.1 °F - 39.0 °F 63% 29.94 in 10.0 mi South 6.9 mph - N/A   Clear
12:53 PM 53.1 °F - 41.0 °F 64% 29.92 in 10.0 mi SSE 6.9 mph - N/A   Clear
1:53 PM 54.0 °F - 41.0 °F 62% 29.88 in 10.0 mi SE 8.1 mph - N/A   Clear
2:53 PM 54.0 °F - 42.1 °F 64% 29.87 in 10.0 mi SSE 8.1 mph - N/A   Clear
3:53 PM 54.0 °F - 43.0 °F 66% 29.88 in 10.0 mi SSE 9.2 mph - N/A   Clear
4:53 PM 53.1 °F - 43.0 °F 69% 29.88 in 10.0 mi SSE 8.1 mph - N/A   Clear
5:53 PM 52.0 °F - 43.0 °F 71% 29.86 in 10.0 mi SE 9.2 mph - N/A   Partly Cloudy
6:53 PM 52.0 °F - 43.0 °F 71% 29.85 in 10.0 mi SSE 10.4 mph 17.3 mph N/A   Clear
7:53 PM 53.1 °F - 42.1 °F 66% 29.83 in 10.0 mi SSE 10.4 mph - N/A   Scattered Clouds
8:53 PM 54.0 °F - 43.0 °F 66% 29.84 in 10.0 mi SSE 13.8 mph 20.7 mph N/A   Overcast
9:53 PM 54.0 °F - 43.0 °F 66% 29.82 in 10.0 mi SSE 10.4 mph - N/A   Mostly Cloudy
10:53 PM 53.1 °F - 43.0 °F 69% 29.82 in 10.0 mi SSE 10.4 mph - N/A   Scattered Clouds
11:53 PM 54.0 °F - 43.0 °F 66% 29.81 in 10.0 mi SSE 13.8 mph - N/A   Overcast